Tracking 19176 objects as of 25-May-2018
HD Live streaming from Space Station
objects crossing your sky now

NOAA 16 DEB

Track NOAA 16 DEB now!
10-day predictions


NORAD ID: 41403
Int'l Code: 2000-055KG
Perigee: 813.3 km
Apogee: 856.9 km
Inclination: 98.9 °
Period: 101.5 minutes
Semi major axis: 7206 km
RCS: Unknown
Launch date: September 21, 2000
Source: United States (US)
Launch site: AIR FORCE WESTERN TEST RANGE (AFWTR)

Note: This is SATELLITE DEBRIS
aabbcc
Your satellite tracking list
Your tracking list is empty




NASA's NSSDC Master Catalog

Two Line Element Set (TLE):
1 41403U 00055KG  18145.44354087  .00000762  00000-0  38331-3 0  9992
2 41403  98.8739 229.5934 0030290  47.7941 312.5798 14.19222745118808
Source of the keplerian elements: AFSPC